Terminal Aerodrome Forecast
Issued by NWS Houston/Galveston TX

Home | Current Version | Previous Version | Text Only | Print | Product List | Glossary On
Versions: 1 2 3 4 5 6 7 8 9 10 11 12 13 14 15 16 17 18 19 20 21 22 23 24 25 26 27 28 29 30 31 32 33 34 35 36 37 38 39 40 41 42 43 44 45 46 47 48 49 50
000
FTUS44 KHGX 231136
TAFHOU
TAF
KHOU 231136Z 2312/2412 10005KT P6SM SCT010 BKN250
     FM231500 13009KT P6SM VCSH SCT015 BKN025
     FM231800 14013KT P6SM VCTS SCT025 BKN035CB
     FM240200 14011KT P6SM BKN015 BKN025
     FM240900 15010KT P6SM VCTS BKN015CB=

USA.gov is the U.S. government's official web portal to all federal, state and local government web resources and services.